Погода в Ынырге

Россия / Республика Алтай     51°49′29″N   86°47′22″E
темп.,
°C
ветер,
м/с
пор.,
м/с
влажн.,
%
обл.,
%
осадки,
мм/ч
давл.,
гПа
погр.,
м
17 сентября, пт
пт1701:00+9ююз226388 0.0 101220
04:00+9ю226253 0.0 101220
07:00+8ю22643 0.0 101220
10:00+16св11465 0.0 1010276
13:00+22зсз2527100 0.0 10082013
16:00+23з263096 0.0 10062443
19:00+15ю226186 0.0 100619
22:00+12ю35535 0.0 100660
18 сентября, сб
сб1801:00+11ю355195 0.0 100563
04:00+11ю3552100 0.0 100367
07:00+11ссз1160100 0.0 100717
10:00+11ссв229095 2.0 1010270
13:00+12ссв228269 2.2 1011536
16:00+16с236313 0.4 1010864
19:00+11ссз119234 0.9 101142
22:00+8ююз1196100 0.0 101210
19 сентября, вс
вс1901:00+7ююз119627 0.0 101215
04:00+8ююз119351 0.0 101213
07:00+6ю11955 0.0 101112
10:00+12всв1180100 0.0 1009245
13:00+16ссв216095 0.0 1007677
16:00+18св33524 0.0 1004728
19:00+12сз118420 0.0 100515
22:00+11юз1189100 0.4 100511
20 сентября, пн
пн2001:00+9сз5989100 2.4 1008881
04:00+6с0294100 2.5 1011229
07:00+5юв119392 3.3 101394
10:00+7з255928 0.0 10131172
13:00+9св1348100 0.1 10121393
16:00+5с1291100 1.4 1015516
19:00+5з0493100 3.4 1017484
22:00+2ссз2499100 1.2 1019368
21 сентября, вт
вт2101:00+2ссз1299100 2.4 1020160
04:00+1зсз1199100 1.0 1022149
07:000зсз1297100 1.9 1024159
10:00+2зсз238293 0.5 1025832
13:00+3сз236996 0.9 10261218
16:00+4ссз235794 0.2 10251312
19:00+1св017958 0.4 102710
22:00+1ю118384 0.0 102845